Location: Bellerive
(46.9237°N, 7.0223°E)
Time: 17:33:03
(UTC+00:00)

Cosmos 1825 Rocket - Pass Details

Date: 09 April 2020
Orbit: 603 x 631 km, 82.5° (Epoch: 28 May)

Event Time Altitude Azimuth Distance (km) Brightness Sun altitude
Rises 19:02:54 0° 347° (NNW) 2,904 7.5 -9.0°
Reaches altitude 10° 19:05:10 10° 345° (NNW) 1,989 6.7 -9.4°
Maximum altitude 19:09:31 63° 264° (W) 686 4.1 -10.0°
Drops below altitude 10° 19:13:47 10° 184° (S) 1,956 5.9 -10.7°
Sets 19:16:00 0° 181° (S) 2,852 6.7 -11.1°
